W0WC Weather Reports


Display with metric or nautical units.
time (UTC)temp
F
wind
direction
speed
MPH
gust
MPH
rain 1hr
in
rain 24hr
in
rain mn
in
humidity
%
barometer
mb
20260507051430 44 25 0.0 0.0 0.00 0.00 0.00 84 1019.3
20260507050927 44 25 0.0 0.0 0.00 0.00 0.00 85 1019.4
20260507050423 44 20 0.0 0.0 0.00 0.00 0.00 85 1019.4
20260507045920 44 11 0.0 0.0 0.00 0.00 0.00 85 1019.4
20260507045416 44 10 0.0 0.0 0.00 0.00 0.00 85 1019.4
20260507044914 44 5 0.0 0.0 0.00 0.00 0.00 84 1019.4
20260507044410 44 10 0.0 0.0 0.00 0.00 0.00 82 1019.4
20260507043907 44 9 0.0 0.0 0.00 0.00 0.00 83 1019.6
20260507043403 44 9 0.0 0.0 0.00 0.00 0.00 82 1019.3
20260507042900 45 8 0.0 0.0 0.00 0.00 0.00 82 1019.2
20260507042356 45 359 0.0 0.0 0.00 0.00 0.00 81 1019.4
20260507041852 45 11 0.0 0.0 0.00 0.00 0.00 81 1019.3
20260507041349 45 12 0.0 0.0 0.00 0.00 0.00 80 1019.4
20260507040846 46 10 0.0 0.0 0.00 0.00 0.00 78 1019.3
20260507040342 46 15 0.0 0.0 0.00 0.00 0.00 76 1019.1
20260507035838 46 24 0.0 0.0 0.00 0.01 0.01 76 1019.2
20260507035333 47 20 0.0 0.0 0.00 0.01 0.01 74 1019.2
20260507034832 47 8 0.0 0.0 0.00 0.01 0.01 72 1019.1
20260507034328 48 6 0.0 0.0 0.00 0.01 0.01 70 1019.0
20260507033826 48 10 0.0 0.0 0.00 0.01 0.01 69 1019.0
20260507033324 48 11 0.0 0.0 0.00 0.01 0.01 69 1019.0
20260507032821 49 15 0.0 0.0 0.00 0.01 0.01 68 1019.0
20260507032317 49 10 0.0 0.0 0.00 0.01 0.01 67 1019.2
20260507031814 50 4 0.0 1.0 0.00 0.01 0.01 67 1018.8
20260507031310 50 0 1.0 1.0 0.00 0.01 0.01 67 1019.0
20260507030806 50 7 1.0 1.0 0.00 0.01 0.01 67 1019.1
20260507030305 49 8 0.0 0.0 0.00 0.01 0.01 69 1018.9
20260507025801 49 8 0.0 1.0 0.00 0.01 0.01 71 1019.0
20260507025258 48 11 0.0 1.0 0.00 0.01 0.01 73 1019.0
20260507024756 47 14 0.0 0.0 0.00 0.01 0.01 73 1018.9
20260507024253 48 9 0.0 0.0 0.00 0.01 0.01 76 1018.8
20260507023749 48 12 0.0 0.0 0.00 0.01 0.01 74 1019.0
20260507023246 49 13 0.0 0.0 0.00 0.01 0.01 69 1018.7
20260507022743 49 13 0.0 0.0 0.00 0.01 0.01 67 1018.6
20260507022239 50 13 0.0 0.0 0.00 0.01 0.01 65 1018.8
20260507021736 51 13 0.0 0.0 0.00 0.01 0.01 63 1018.5
20260507021231 51 13 0.0 0.0 0.00 0.01 0.01 61 1018.4
20260507020730 52 12 0.0 0.0 0.00 0.01 0.01 60 1018.6
20260507020226 53 12 0.0 0.0 0.00 0.01 0.01 59 1018.4
20260507015723 53 11 0.0 1.0 0.00 0.01 0.01 58 1018.4
20260507015221 53 12 0.0 0.0 0.00 0.01 0.01 58 1018.3
20260507014717 54 9 1.0 1.0 0.00 0.01 0.01 58 1018.2
20260507014214 54 12 0.0 1.0 0.00 0.01 0.01 56 1018.1
20260507013710 54 1 1.0 1.0 0.00 0.01 0.01 55 1018.1
20260507013208 55 15 2.0 2.0 0.00 0.01 0.01 54 1018.1
20260507012705 55 9 2.0 3.0 0.00 0.01 0.01 53 1018.1
20260507012200 56 11 2.0 2.0 0.00 0.01 0.01 53 1017.9
20260507011658 56 20 1.0 2.0 0.00 0.01 0.01 51 1017.9
20260507011154 56 358 2.0 2.0 0.00 0.01 0.01 56 1017.8
20260507010649 57 6 1.0 1.0 0.00 0.01 0.01 53 1017.5
20260507010145 57 19 1.0 1.0 0.00 0.01 0.01 48 1017.5
20260507005643 58 27 1.0 2.0 0.00 0.01 0.01 48 1017.5
20260507005139 58 26 0.0 1.0 0.00 0.01 0.01 46 1017.5
20260507004636 58 19 2.0 2.0 0.00 0.01 0.01 46 1017.6
20260507004134 59 15 1.0 2.0 0.00 0.01 0.01 45 1017.6
20260507003630 59 346 1.0 2.0 0.00 0.01 0.01 45 1017.4
20260507003124 59 12 4.0 4.0 0.00 0.01 0.01 44 1017.5
20260507002621 59 29 1.0 2.0 0.00 0.01 0.01 44 1017.5
20260507002117 59 345 4.0 6.0 0.00 0.01 0.01 44 1017.6
20260507001614 59 19 3.0 3.0 0.00 0.01 0.01 44 1017.4
20260507001112 59 11 3.0 3.0 0.00 0.01 0.01 45 1017.4
20260507000608 59 35 2.0 3.0 0.00 0.01 0.01 45 1017.2
20260506235601 60 21 7.0 8.0 0.00 0.01 0.01 43 1017.2
20260506235101 60 11 3.0 4.0 0.00 0.01 0.01 43 1017.0
20260506234559 60 14 4.0 7.0 0.00 0.01 0.01 42 1017.0
20260506234055 60 10 4.0 7.0 0.00 0.01 0.01 44 1016.9
20260506233552 60 73 4.0 8.0 0.00 0.01 0.01 43 1016.8
20260506233049 61 11 4.0 4.0 0.00 0.01 0.01 43 1016.6
20260506232545 61 16 3.0 4.0 0.00 0.01 0.01 43 1016.8
20260506232041 61 1 8.0 10.0 0.00 0.01 0.01 43 1016.6
20260506231539 61 15 9.0 11.0 0.00 0.01 0.01 43 1016.6
20260506231036 61 0 6.0 9.0 0.00 0.01 0.01 43 1016.6
20260506230533 61 15 11.0 14.0 0.00 0.01 0.01 43 1016.7
20260506230030 62 327 6.0 10.0 0.00 0.01 0.01 44 1016.6
20260506225527 61 27 8.0 11.0 0.00 0.01 0.01 43 1016.7
20260506225023 62 24 11.0 14.0 0.00 0.01 0.01 42 1016.3
20260506224520 62 9 4.0 6.0 0.00 0.01 0.01 42 1016.4
20260506224017 62 57 1.0 2.0 0.00 0.01 0.01 43 1016.7
20260506223512 62 19 5.0 9.0 0.00 0.01 0.01 42 1016.8
20260506223009 62 3 7.0 9.0 0.00 0.01 0.01 43 1016.7
20260506222506 62 33 4.0 6.0 0.00 0.01 0.01 42 1016.5
20260506222002 62 12 2.0 3.0 0.00 0.01 0.01 42 1016.5
20260506221500 62 347 2.0 3.0 0.00 0.01 0.01 42 1016.6
20260506220958 62 67 2.0 3.0 0.00 0.01 0.01 40 1016.6
20260506220453 62 2 4.0 6.0 0.00 0.01 0.01 39 1016.8
20260506215949 61 5 1.0 2.0 0.00 0.01 0.01 41 1016.9
20260506215446 61 59 1.0 3.0 0.00 0.01 0.01 42 1016.6
20260506214947 61 359 8.0 13.0 0.00 0.01 0.01 43 1016.6
20260506214444 61 349 11.0 13.0 0.00 0.01 0.01 42 1016.8
20260506213942 61 354 6.0 7.0 0.00 0.01 0.01 43 1016.8
20260506213439 61 307 7.0 8.0 0.00 0.01 0.01 43 1016.7
20260506212936 62 341 11.0 13.0 0.00 0.01 0.01 42 1016.8
20260506212432 62 46 9.0 11.0 0.00 0.01 0.01 43 1016.7
20260506211927 62 358 5.0 6.0 0.00 0.01 0.01 42 1016.8
20260506211424 62 39 4.0 4.0 0.00 0.01 0.01 42 1016.9
20260506210921 61 36 4.0 6.0 0.00 0.01 0.01 44 1016.8
20260506210417 62 19 4.0 4.0 0.00 0.01 0.01 42 1016.9
20260506205915 62 80 3.0 4.0 0.00 0.01 0.01 43 1017.0
20260506205410 62 303 6.0 7.0 0.00 0.01 0.01 46 1016.9
20260506204907 62 43 2.0 3.0 0.00 0.01 0.01 46 1017.0
20260506204405 62 4 7.0 9.0 0.00 0.01 0.01 44 1017.0
20260506203902 62 25 3.0 6.0 0.00 0.01 0.01 43 1017.2
20260506203359 61 6 1.0 1.0 0.00 0.01 0.01 44 1017.1
20260506202856 61 358 13.0 17.0 0.00 0.01 0.01 41 1017.4
20260506202353 62 320 3.0 6.0 0.00 0.01 0.01 40 1017.4
20260506201849 62 48 1.0 2.0 0.00 0.01 0.01 43 1017.4
20260506201347 61 334 6.0 9.0 0.00 0.01 0.01 43 1017.4
20260506200843 61 34 4.0 6.0 0.00 0.01 0.01 44 1017.4
20260506200339 61 331 12.0 14.0 0.00 0.01 0.01 42 1017.5
20260506195836 61 317 7.0 9.0 0.00 0.01 0.01 44 1017.3
20260506195333 61 348 5.0 7.0 0.00 0.01 0.01 44 1017.3
20260506194830 61 38 6.0 10.0 0.00 0.01 0.01 42 1017.5
20260506194326 61 39 1.0 2.0 0.00 0.01 0.01 45 1017.6
20260506193824 61 327 4.0 4.0 0.00 0.01 0.01 44 1017.6
20260506193321 61 310 5.0 10.0 0.00 0.01 0.01 44 1017.9
20260506192817 61 18 9.0 10.0 0.00 0.01 0.01 45 1018.0
20260506192314 61 317 6.0 8.0 0.00 0.01 0.01 43 1018.1
20260506191811 60 25 3.0 6.0 0.00 0.01 0.01 45 1018.1
20260506191307 60 352 2.0 2.0 0.00 0.01 0.01 43 1018.1
20260506190804 61 22 8.0 9.0 0.00 0.01 0.01 45 1018.3
20260506190301 60 4 2.0 4.0 0.00 0.01 0.01 44 1018.0
20260506185758 60 58 8.0 9.0 0.00 0.01 0.01 45 1018.2
20260506185254 61 6 4.0 6.0 0.00 0.01 0.01 44 1018.3
20260506184752 60 24 6.0 7.0 0.00 0.01 0.01 44 1018.3
20260506184249 60 2 10.0 16.0 0.00 0.01 0.01 45 1018.3
20260506183746 60 21 4.0 7.0 0.00 0.01 0.01 43 1018.4
20260506183246 59 12 5.0 8.0 0.00 0.01 0.01 45 1018.4
20260506182744 60 36 2.0 6.0 0.00 0.01 0.01 44 1018.5
20260506182241 60 8 6.0 7.0 0.00 0.01 0.01 45 1018.5
20260506181739 60 20 4.0 7.0 0.00 0.01 0.01 45 1018.7
20260506181236 60 339 1.0 3.0 0.00 0.01 0.01 47 1019.0
20260506180733 60 20 8.0 10.0 0.00 0.01 0.01 45 1018.9
20260506180234 60 12 1.0 1.0 0.00 0.01 0.01 42 1018.9
20260506175730 60 14 1.0 1.0 0.00 0.01 0.01 46 1019.2
20260506175227 60 94 2.0 6.0 0.00 0.01 0.01 45 1019.3
20260506174725 60 10 6.0 9.0 0.00 0.01 0.01 45 1019.1
20260506174221 59 22 2.0 4.0 0.00 0.01 0.01 47 1019.2
20260506173719 58 14 6.0 8.0 0.00 0.01 0.01 46 1019.2
20260506173216 59 18 6.0 9.0 0.00 0.01 0.01 44 1019.1
20260506172713 59 3 4.0 6.0 0.00 0.01 0.01 47 1019.2
20260506172209 59 20 2.0 6.0 0.00 0.01 0.01 46 1019.2
20260506171707 57 19 0.0 0.0 0.00 0.01 0.01 47 1019.1
20260506171205 57 32 2.0 3.0 0.00 0.01 0.01 47 1019.1
20260506170702 57 23 3.0 4.0 0.00 0.01 0.01 47 1019.3
20260506170158 57 26 4.0 6.0 0.00 0.01 0.01 46 1019.5
20260506165657 57 27 4.0 6.0 0.00 0.01 0.01 49 1019.6
20260506165153 57 115 1.0 2.0 0.00 0.01 0.01 50 1019.5
20260506164650 56 12 3.0 3.0 0.00 0.01 0.01 50 1019.5
20260506164148 56 32 2.0 4.0 0.00 0.01 0.01 48 1019.5
20260506163644 57 25 5.0 7.0 0.00 0.01 0.01 49 1019.1
20260506163139 56 350 3.0 4.0 0.00 0.01 0.01 50 1018.9
20260506162635 57 2 5.0 7.0 0.00 0.01 0.01 51 1019.0
20260506162133 56 36 2.0 4.0 0.00 0.01 0.01 53 1018.7
20260506161630 57 75 6.0 10.0 0.00 0.01 0.01 52 1018.6
20260506161127 57 37 1.0 1.0 0.00 0.01 0.01 53 1018.3
20260506160624 57 24 3.0 3.0 0.00 0.01 0.01 54 1018.2
20260506160121 57 10 2.0 4.0 0.00 0.01 0.01 53 1018.1
20260506155620 56 43 2.0 3.0 0.00 0.01 0.01 54 1018.3
20260506155117 54 53 2.0 3.0 0.00 0.01 0.01 58 1018.0
20260506153218 54 33 4.0 6.0 0.00 0.01 0.01 56 1018.3
20260506152715 54 17 9.0 11.0 0.00 0.01 0.01 57 1018.2
20260506152212 54 6 3.0 6.0 0.00 0.01 0.01 59 1018.2
20260506151712 54 7 2.0 2.0 0.00 0.01 0.01 59 1018.2
20260506151208 54 67 5.0 7.0 0.00 0.01 0.01 58 1018.3
20260506150704 54 14 3.0 4.0 0.00 0.01 0.01 60 1018.2
20260506150201 54 356 3.0 4.0 0.00 0.01 0.01 62 1018.5
20260506145658 53 21 4.0 6.0 0.00 0.01 0.01 61 1018.1
20260506145155 53 11 2.0 3.0 0.00 0.01 0.01 62 1017.9
20260506144653 53 23 2.0 2.0 0.00 0.01 0.01 65 1018.0
20260506144149 53 352 4.0 4.0 0.00 0.01 0.01 66 1018.0
20260506143646 52 18 2.0 3.0 0.00 0.01 0.01 69 1017.5
20260506143144 51 28 2.0 3.0 0.00 0.01 0.01 69 1017.9
20260506142643 51 2 3.0 3.0 0.00 0.01 0.01 70 1017.8
20260506142140 51 45 6.0 9.0 0.00 0.01 0.01 71 1017.5
20260506141638 50 18 2.0 3.0 0.00 0.01 0.01 72 1017.8
20260506141136 50 43 1.0 2.0 0.00 0.01 0.01 74 1018.1
20260506140633 50 15 3.0 4.0 0.00 0.01 0.01 75 1018.2
20260506140130 49 354 4.0 4.0 0.00 0.01 0.01 76 1018.3
20260506135627 49 61 2.0 3.0 0.00 0.01 0.01 76 1018.3
20260506135123 48 36 0.0 0.0 0.00 0.01 0.01 77 1018.2
20260506134620 48 18 0.0 1.0 0.00 0.01 0.01 76 1018.4
20260506134115 48 50 2.0 3.0 0.00 0.01 0.01 77 1018.2
20260506133613 48 35 2.0 3.0 0.00 0.01 0.01 78 1018.2
20260506133110 48 7 0.0 0.0 0.00 0.01 0.01 79 1018.1
20260506132608 47 39 2.0 2.0 0.00 0.01 0.01 79 1018.1
20260506132104 47 177 1.0 2.0 0.00 0.01 0.01 80 1018.0
20260506131602 47 55 0.0 1.0 0.00 0.01 0.01 81 1017.9
20260506131058 47 42 1.0 1.0 0.00 0.01 0.01 81 1017.9
20260506130555 47 41 2.0 3.0 0.00 0.01 0.01 81 1018.0
20260506130053 47 39 1.0 2.0 0.00 0.01 0.01 81 1017.9
20260506125551 47 82 1.0 2.0 0.00 0.01 0.01 82 1017.8
20260506125048 47 359 5.0 7.0 0.00 0.01 0.01 83 1018.1
20260506124545 46 18 2.0 4.0 0.00 0.01 0.01 83 1017.5
20260506124043 46 30 1.0 1.0 0.00 0.01 0.01 84 1017.8
20260506123541 46 17 1.0 2.0 0.00 0.01 0.01 85 1017.8
20260506123039 46 19 1.0 1.0 0.00 0.01 0.01 85 1017.8
20260506122535 46 31 1.0 1.0 0.00 0.01 0.01 86 1017.9
20260506122034 46 15 1.0 1.0 0.00 0.01 0.01 87 1017.9
20260506121531 46 24 2.0 2.0 0.00 0.01 0.01 88 1018.0
20260506121027 46 8 4.0 4.0 0.00 0.01 0.01 88 1017.9
20260506120525 46 31 4.0 7.0 0.00 0.01 0.01 89 1018.1
20260506120022 46 21 1.0 2.0 0.00 0.01 0.01 91 1018.0
20260506115520 46 21 6.0 7.0 0.00 0.01 0.01 92 1018.1
20260506115018 46 348 3.0 4.0 0.00 0.01 0.01 92 1017.9
20260506114515 46 14 4.0 7.0 0.00 0.01 0.01 92 1017.8
20260506114014 46 2 3.0 3.0 0.00 0.01 0.01 93 1017.9
20260506113511 46 8 2.0 2.0 0.00 0.01 0.01 93 1017.5
20260506113008 46 0 3.0 4.0 0.00 0.01 0.01 93 1017.4
20260506112505 46 5 4.0 6.0 0.00 0.01 0.01 93 1017.5
20260506112002 46 33 3.0 3.0 0.00 0.01 0.01 93 1017.2
20260506111500 46 4 2.0 3.0 0.00 0.01 0.01 93 1017.2
20260506110956 46 16 5.0 7.0 0.00 0.01 0.01 94 1017.4
20260506110455 45 33 4.0 4.0 0.00 0.01 0.01 94 1017.2
20260506105951 45 12 2.0 2.0 0.00 0.01 0.01 94 1017.2
20260506105447 45 15 2.0 2.0 0.00 0.01 0.01 94 1017.2
20260506104945 45 16 1.0 2.0 0.00 0.01 0.01 94 1017.0
20260506104443 45 11 4.0 4.0 0.00 0.01 0.01 94 1016.7
20260506103941 45 0 2.0 2.0 0.00 0.01 0.01 94 1016.8
20260506103438 45 11 2.0 2.0 0.00 0.01 0.01 93 1016.6
20260506102935 45 18 2.0 3.0 0.00 0.01 0.01 93 1016.2
20260506102433 45 1 4.0 4.0 0.00 0.01 0.01 93 1016.3
20260506101930 45 27 2.0 3.0 0.00 0.01 0.01 93 1016.2
20260506101426 45 7 3.0 3.0 0.00 0.01 0.01 93 1016.3
20260506100923 45 315 2.0 3.0 0.00 0.01 0.01 93 1016.3
20260506100421 45 12 5.0 6.0 0.00 0.01 0.01 93 1016.2
20260506095919 45 2 3.0 3.0 0.00 0.01 0.01 93 1016.0
20260506095417 45 308 4.0 4.0 0.00 0.01 0.01 93 1015.9
20260506094913 45 17 2.0 2.0 0.00 0.01 0.01 93 1015.8
20260506094412 45 14 1.0 2.0 0.00 0.01 0.01 93 1015.9
20260506093909 45 5 2.0 3.0 0.00 0.01 0.01 93 1015.7
20260506093407 45 16 1.0 2.0 0.00 0.01 0.01 93 1015.7
20260506092905 45 6 3.0 4.0 0.00 0.01 0.01 93 1015.7
20260506092403 45 13 2.0 3.0 0.00 0.01 0.01 92 1015.8
20260506091859 45 7 2.0 2.0 0.00 0.01 0.01 92 1015.6
20260506091357 45 18 3.0 3.0 0.00 0.01 0.01 92 1015.9
20260506090854 45 10 2.0 2.0 0.00 0.01 0.01 91 1015.6
20260506090352 45 18 1.0 2.0 0.00 0.01 0.01 91 1015.4
20260506085848 45 11 1.0 2.0 0.00 0.01 0.01 91 1015.5
20260506085344 45 34 2.0 2.0 0.00 0.01 0.01 90 1014.9
20260506084841 46 6 1.0 2.0 0.05 0.01 0.01 89 1015.0
20260506084338 46 358 1.0 2.0 0.05 0.01 0.01 89 1014.6
20260506083834 46 8 3.0 3.0 0.00 0.00 0.00 88 1014.6
20260506083332 46 20 2.0 2.0 0.00 0.00 0.00 87 1014.1
20260506082829 46 20 3.0 3.0 0.00 0.00 0.00 87 1014.1
20260506082326 46 28 2.0 3.0 0.00 0.00 0.00 87 1014.5
20260506081822 46 4 2.0 2.0 0.00 0.00 0.00 87 1014.7
20260506081320 46 22 0.0 1.0 0.00 0.00 0.00 88 1014.0
20260506080817 46 53 1.0 2.0 0.00 0.00 0.00 87 1013.9
20260506080313 46 16 3.0 6.0 0.00 0.00 0.00 87 1013.7
20260506073258 46 0 3.0 3.0 0.00 0.00 0.00 86 1013.6
20260506072754 46 12 1.0 2.0 0.00 0.00 0.00 85 1013.6
20260506072252 46 359 5.0 7.0 0.00 0.00 0.00 85 1013.4
20260506071749 46 7 2.0 2.0 0.00 0.00 0.00 84 1013.7
20260506071247 46 8 2.0 2.0 0.00 0.00 0.00 84 1013.9
20260506070744 47 34 1.0 2.0 0.00 0.00 0.00 83 1013.3
20260506070241 47 353 2.0 2.0 0.00 0.00 0.00 83 1013.5
20260506062218 47 17 1.0 2.0 0.00 0.00 0.00 83 1015.0
20260506061714 47 6 4.0 4.0 0.00 0.00 0.00 82 1014.8
20260506061212 47 26 0.0 0.0 0.00 0.00 0.00 83 1014.7
20260506060711 47 18 1.0 2.0 0.00 0.00 0.00 83 1014.7
20260506060207 47 49 1.0 2.0 0.00 0.00 0.00 82 1014.8